Location: Astronomy Adventures Observing Site
(35.3995°N, 106.1279°W)
Time: 18:34:10
(UTC-06:00)

Envisat - Pass Details

Date: 25 January 2022
Orbit: 764 x 765 km, 98.2° (Epoch: 27 May)

Event Time Altitude Azimuth Distance (km) Brightness Sun altitude
Rises 04:39:40 0° 16° (NNE) 3,234 6.4 -30.3°
Reaches altitude 10° 04:42:00 10° 19° (NNE) 2,304 5.6 -29.8°
Maximum altitude 04:47:02 63° 101° (E) 849 3.3 -28.8°
Drops below altitude 10° 04:52:03 10° 182° (S) 2,291 5.5 -27.8°
Sets 04:54:21 0° 186° (S) 3,213 6.2 -27.3°
